Weather History for Palm Springs, CA

Change the Weather History Date:

Tuesday, January 8, 2013

  Actual Average Record
Temperature  
Mean Temperature 64 °F 57 °F  
Max Temperature 80 °F 68 °F 91 °F (1962)
Min Temperature 47 °F 46 °F 28 °F (1965)
Degree Days  
Heating Degree Days 1 8  
Month to date heating degree days 86 70  
Since 1 July heating degree days 387 456  
Cooling Degree Days 0 0  
Month to date cooling degree days 0 0  
Year to date cooling degree days 0 0  
Growing Degree Days 14 (Base 50)    
Moisture  
Dew Point 26 °F    
Average Humidity 26    
Maximum Humidity 36    
Minimum Humidity 15    
Precipitation  
Precipitation 0.00 in 0.05 in 1.70 in (1940)
Month to date precipitation T 0.40  
Year to date precipitation T 0.40  
Since 1 July precipitation 1.22 3.20  
Snow  
Snow 0.00 in - - ()
Month to date snowfall 0.0  
Year to date snowfall 0.0  
Since 1 July snowfall 0.0  
Snow Depth 0.00 in    
Sea Level Pressure  
Sea Level Pressure 30.05 in    
Wind  
Wind Speed 6 mph (West)    
Max Wind Speed 14 mph    
Max Gust Speed 17 mph    
Visibility 10 miles    
Events      
T = Trace of Precipitation, MM = Missing Value Source: NWS Daily Summary

Daily Weather History Graph

Daily Weather History Graph

Search for Another Location

Airport:

Trip Planner

Search our weather history database for the weather conditions in past years. The results will help you decide how hot, cold, wet, or windy it might be!

Date:

Astronomy

Jan. 08, 2013 Rise Set
Actual Time 6:51 AM PST 4:54 PM PST
Civil Twilight 6:24 AM PST 5:21 PM PST
Nautical Twilight 5:53 AM PST 5:52 PM PST
Astronomical Twilight 5:23 AM PST 6:22 PM PST
Moon 3:30 AM PST (1/8) 2:00 PM PST (1/8)
Length of Visible Light 10h 57m
Length of Day
10h 02m
Waning Crescent, 13% of the Moon is Illuminated
Jan 8
Waning Crescent
Jan 11
New
Jan 18
First Quarter
Jan 26
Full
Feb 3
Last Quarter

Hourly Weather History & Observations

Time (PST) Temp. Dew Point Humidity Pressure Visibility Wind Dir Wind Speed Gust Speed Precip Events Conditions
12:53 AM 50.0 °F 19.9 °F 31% 30.00 in 10.0 mi NNW 10.4 mph - N/A   Clear
1:53 AM 53.1 °F 18.0 °F 25% 30.01 in 10.0 mi NW 6.9 mph - N/A   Clear
2:53 AM 50.0 °F 19.0 °F 29% 30.00 in 10.0 mi NNW 8.1 mph - N/A   Clear
4:53 AM 55.9 °F 16.0 °F 21% 30.01 in 10.0 mi Variable 3.5 mph - N/A   Clear
5:53 AM 52.0 °F 19.0 °F 27% 30.02 in 10.0 mi West 6.9 mph - N/A   Clear
6:53 AM 48.9 °F 19.0 °F 31% 30.05 in 10.0 mi NNW 5.8 mph - N/A   Clear
7:53 AM 53.1 °F 19.9 °F 27% 30.07 in 10.0 mi West 6.9 mph - N/A   Clear
8:53 AM 66.0 °F 28.0 °F 24% 30.09 in 10.0 mi West 4.6 mph - N/A   Clear
9:53 AM 73.0 °F 28.9 °F 20% 30.08 in 10.0 mi SSE 10.4 mph - N/A   Clear
10:53 AM 75.0 °F 28.9 °F 18% 30.06 in 10.0 mi SSE 6.9 mph - N/A   Clear
11:53 AM 75.9 °F 28.9 °F 18% 30.02 in 10.0 mi Variable 3.5 mph - N/A   Clear
12:53 PM 77.0 °F 30.0 °F 18% 30.01 in 10.0 mi South 4.6 mph - N/A   Clear
1:53 PM 78.1 °F 28.9 °F 17% 29.99 in 10.0 mi SW 5.8 mph - N/A   Clear
2:53 PM 79.0 °F 28.9 °F 16% 30.01 in 10.0 mi SW 3.5 mph - N/A   Clear
3:53 PM 79.0 °F 26.1 °F 14% 30.01 in 10.0 mi NE 3.5 mph - N/A   Scattered Clouds
4:53 PM 73.9 °F 28.0 °F 18% 30.03 in 10.0 mi Calm Calm - N/A   Clear
5:53 PM 71.1 °F 28.9 °F 21% 30.04 in 10.0 mi SW 3.5 mph - N/A   Clear
6:53 PM 70.0 °F 28.0 °F 21% 30.07 in 10.0 mi West 4.6 mph - N/A   Clear
7:53 PM 66.0 °F 28.9 °F 25% 30.09 in 10.0 mi West 5.8 mph - N/A   Clear
8:53 PM 66.0 °F 28.0 °F 24% 30.10 in 10.0 mi WNW 5.8 mph - N/A   Clear
9:53 PM 64.0 °F 28.0 °F 26% 30.10 in 10.0 mi West 5.8 mph - N/A   Clear
10:53 PM 57.9 °F 30.9 °F 36% 30.10 in 10.0 mi North 9.2 mph - N/A   Clear
11:53 PM 62.1 °F 30.0 °F 30% 30.10 in 10.0 mi NW 6.9 mph - N/A   Clear